AIC2376 VIDP-VTSP

Flight info

Callsign AIC2376
Flight time N/A
Altitude 37000
Route LKN R460 BBN W50 BBS/N0459F390 L759 SATVA SATVA1D
Aircraft A20N/M-SDE2E3FGHIRWXY/LB1

Departure

Time 2026-04-29 10:21
Airport Indira Gandhi International Airport (VIDP)

Arrival

Time N/A
Airport Phuket International Airport (VTSP)
Time Latitude Longitude Altitude Speed Heading
2026-04-29 10:09 28.55893 77.08126 747 ft 0 kts 333°
2026-04-29 10:10 28.55894 77.08126 747 ft 1 kts 333°
2026-04-29 10:10 28.55944 77.08097 746 ft 13 kts 329°
2026-04-29 10:10 28.56000 77.08056 748 ft 8 kts 327°
2026-04-29 10:10 28.56017 77.08005 748 ft 7 kts 253°
2026-04-29 10:11 28.55987 77.07967 748 ft 7 kts 202°
2026-04-29 10:11 28.55938 77.07953 748 ft 8 kts 193°
2026-04-29 10:11 28.55881 77.07937 747 ft 9 kts 194°
2026-04-29 10:11 28.55814 77.07918 749 ft 10 kts 194°
2026-04-29 10:12 28.55740 77.07895 749 ft 12 kts 195°
2026-04-29 10:12 28.55658 77.07870 750 ft 13 kts 194°
2026-04-29 10:12 28.55570 77.07845 747 ft 13 kts 194°
2026-04-29 10:12 28.55476 77.07818 748 ft 14 kts 194°
2026-04-29 10:13 28.55378 77.07791 748 ft 15 kts 193°
2026-04-29 10:13 28.55275 77.07763 749 ft 16 kts 194°
2026-04-29 10:13 28.55169 77.07728 748 ft 16 kts 210°
2026-04-29 10:13 28.55163 77.07636 751 ft 12 kts 278°
2026-04-29 10:14 28.55179 77.07536 751 ft 14 kts 284°
2026-04-29 10:14 28.55206 77.07428 749 ft 15 kts 286°
2026-04-29 10:14 28.55231 77.07311 748 ft 16 kts 283°
2026-04-29 10:14 28.55259 77.07183 747 ft 17 kts 285°
2026-04-29 10:15 28.55294 77.07049 749 ft 18 kts 288°
2026-04-29 10:15 28.55310 77.06936 750 ft 12 kts 247°
2026-04-29 10:15 28.55240 77.06890 749 ft 12 kts 195°
2026-04-29 10:15 28.55148 77.06870 746 ft 15 kts 191°
2026-04-29 10:16 28.55122 77.06864 746 ft 0 kts 192°
2026-04-29 10:18 28.55121 77.06864 746 ft 1 kts 192°
2026-04-29 10:18 28.55090 77.06856 747 ft 9 kts 192°
2026-04-29 10:18 28.55050 77.06846 745 ft 7 kts 192°
2026-04-29 10:18 28.55002 77.06857 747 ft 7 kts 129°
2026-04-29 10:19 28.55001 77.06866 748 ft 0 kts 89°
2026-04-29 10:20 28.55001 77.06868 747 ft 1 kts 89°
2026-04-29 10:20 28.54997 77.06943 748 ft 34 kts 95°
2026-04-29 10:20 28.54880 77.07496 749 ft 109 kts 100°
2026-04-29 10:20 28.54645 77.08585 751 ft 168 kts 103°
2026-04-29 10:21 28.54343 77.09978 1185 ft 190 kts 102°
2026-04-29 10:21 28.54012 77.11492 1691 ft 205 kts 103°
2026-04-29 10:21 28.53616 77.13023 2299 ft 206 kts 116°
2026-04-29 10:21 28.52627 77.14269 2625 ft 225 kts 150°
2026-04-29 10:22 28.51063 77.14799 2891 ft 247 kts 176°
2026-04-29 10:22 28.49280 77.14793 3288 ft 267 kts 184°
2026-04-29 10:22 28.47397 77.14682 3972 ft 272 kts 184°
2026-04-29 10:22 28.45502 77.14626 4769 ft 274 kts 182°
2026-04-29 10:23 28.43583 77.14639 5500 ft 278 kts 180°
2026-04-29 10:23 28.41642 77.14696 5927 ft 280 kts 179°
2026-04-29 10:23 28.39689 77.14777 6573 ft 282 kts 179°
2026-04-29 10:23 28.37726 77.14864 7068 ft 282 kts 180°
2026-04-29 10:24 28.35748 77.14949 7644 ft 286 kts 180°
2026-04-29 10:24 28.33755 77.15036 8264 ft 287 kts 180°
2026-04-29 10:24 28.31753 77.15123 8588 ft 289 kts 180°
2026-04-29 10:24 28.29736 77.15207 8827 ft 290 kts 181°
2026-04-29 10:25 28.27713 77.15087 9083 ft 298 kts 190°
2026-04-29 10:25 28.25586 77.14758 9338 ft 318 kts 190°
2026-04-29 10:25 28.23322 77.14423 9597 ft 338 kts 190°
2026-04-29 10:25 28.20929 77.14077 9832 ft 356 kts 189°
2026-04-29 10:26 28.18406 77.13716 10054 ft 373 kts 189°
2026-04-29 10:26 28.15781 77.13343 10287 ft 388 kts 189°
2026-04-29 10:26 28.13068 77.12958 10514 ft 396 kts 189°
2026-04-29 10:26 28.10308 77.12752 10750 ft 400 kts 179°
2026-04-29 10:27 28.05003 77.14761 11221 ft 413 kts 147°
2026-04-29 10:27 28.02861 77.16937 11450 ft 418 kts 131°
2026-04-29 10:27 28.01284 77.19716 11702 ft 423 kts 116°
2026-04-29 10:28 28.00092 77.22774 11945 ft 426 kts 114°
2026-04-29 10:28 27.98930 77.25864 12200 ft 427 kts 114°
2026-04-29 10:28 27.97760 77.28961 12564 ft 430 kts 114°
2026-04-29 10:28 27.96566 77.32081 12977 ft 433 kts 115°
2026-04-29 10:29 27.95356 77.35216 13430 ft 437 kts 115°
2026-04-29 10:29 27.94128 77.38377 13845 ft 441 kts 115°
2026-04-29 10:29 27.92902 77.41523 14267 ft 444 kts 115°
2026-04-29 10:29 27.91651 77.44729 14733 ft 447 kts 115°
2026-04-29 10:30 27.90538 77.47969 15224 ft 450 kts 111°
2026-04-29 10:30 27.89452 77.51304 15763 ft 452 kts 111°
2026-04-29 10:30 27.88359 77.54640 16297 ft 454 kts 111°
2026-04-29 10:30 27.87259 77.57988 16845 ft 455 kts 111°
2026-04-29 10:31 27.86160 77.61332 17400 ft 456 kts 111°
2026-04-29 10:31 27.85047 77.64711 17964 ft 458 kts 111°
2026-04-29 10:31 27.83936 77.68086 18457 ft 458 kts 111°
2026-04-29 10:31 27.82843 77.71460 18955 ft 460 kts 109°
2026-04-29 10:32 27.81951 77.74945 19464 ft 460 kts 106°
2026-04-29 10:32 27.81087 77.78415 19977 ft 461 kts 106°
2026-04-29 10:32 27.80213 77.81905 20497 ft 461 kts 106°
2026-04-29 10:32 27.79337 77.85390 21048 ft 461 kts 106°
2026-04-29 10:33 27.78458 77.88875 21586 ft 461 kts 106°
2026-04-29 10:33 27.77581 77.92347 22141 ft 461 kts 106°
2026-04-29 10:33 27.76988 77.94698 22521 ft 460 kts 106°
2026-04-29 10:33 27.76126 77.98107 23083 ft 460 kts 106°
2026-04-29 10:34 27.74950 78.02758 23754 ft 459 kts 106°
2026-04-29 10:34 27.74370 78.05050 24080 ft 458 kts 107°
2026-04-29 10:34 27.73496 78.08498 24572 ft 457 kts 107°
2026-04-29 10:34 27.72621 78.11939 25083 ft 455 kts 107°
2026-04-29 10:35 27.71554 78.15291 25591 ft 452 kts 113°
2026-04-29 10:35 27.70372 78.18570 26111 ft 450 kts 113°
2026-04-29 10:35 27.69205 78.21834 26639 ft 448 kts 113°
2026-04-29 10:35 27.68063 78.25043 27175 ft 445 kts 113°
2026-04-29 10:36 27.66899 78.28307 27735 ft 442 kts 113°
2026-04-29 10:36 27.65757 78.31508 28290 ft 438 kts 113°
2026-04-29 10:36 27.64624 78.34680 28868 ft 434 kts 113°
2026-04-29 10:36 27.63501 78.37819 29451 ft 429 kts 113°
2026-04-29 10:37 27.62389 78.40923 29993 ft 424 kts 114°
2026-04-29 10:37 27.61290 78.43988 30490 ft 419 kts 114°
2026-04-29 10:37 27.60207 78.47007 31001 ft 413 kts 114°
2026-04-29 10:37 27.59137 78.49985 31516 ft 406 kts 114°
2026-04-29 10:38 27.58090 78.52900 31980 ft 401 kts 114°
2026-04-29 10:38 27.57043 78.55807 32167 ft 403 kts 114°
2026-04-29 10:38 27.55987 78.58740 32344 ft 405 kts 114°
2026-04-29 10:38 27.54925 78.61686 32503 ft 407 kts 114°
2026-04-29 10:39 27.53857 78.64647 32686 ft 409 kts 114°
2026-04-29 10:39 27.52785 78.67618 32854 ft 411 kts 114°
2026-04-29 10:39 27.51704 78.70610 33020 ft 413 kts 114°
2026-04-29 10:39 27.50618 78.73615 33188 ft 414 kts 114°
2026-04-29 10:40 27.49536 78.76608 33347 ft 416 kts 114°
2026-04-29 10:40 27.48436 78.79645 33513 ft 418 kts 114°
2026-04-29 10:40 27.47336 78.82681 33668 ft 419 kts 114°
2026-04-29 10:40 27.46232 78.85727 33805 ft 421 kts 114°
2026-04-29 10:41 27.45122 78.88785 33934 ft 422 kts 114°
2026-04-29 10:41 27.44008 78.91853 34076 ft 424 kts 114°
2026-04-29 10:41 27.42891 78.94925 34195 ft 425 kts 114°
2026-04-29 10:41 27.41767 78.98012 34323 ft 426 kts 114°
2026-04-29 10:42 27.40644 79.01099 34446 ft 428 kts 114°
2026-04-29 10:42 27.39513 79.04202 34555 ft 429 kts 113°
2026-04-29 10:42 27.38379 79.07312 34678 ft 430 kts 114°
2026-04-29 10:42 27.37242 79.10428 34836 ft 429 kts 113°
2026-04-29 10:43 27.36114 79.13517 35101 ft 426 kts 113°
2026-04-29 10:43 27.34985 79.16604 35220 ft 427 kts 113°
2026-04-29 10:43 27.33853 79.19699 35336 ft 428 kts 113°
2026-04-29 10:44 27.31576 79.25915 35532 ft 430 kts 113°
2026-04-29 10:44 27.30434 79.29029 35639 ft 431 kts 113°
2026-04-29 10:44 27.29291 79.32144 35742 ft 432 kts 113°
2026-04-29 10:45 27.26991 79.38403 35940 ft 434 kts 113°
2026-04-29 10:45 27.24744 79.44711 36130 ft 436 kts 111°
2026-04-29 10:46 27.22658 79.51118 36308 ft 437 kts 110°
2026-04-29 10:46 27.20550 79.57535 36478 ft 439 kts 111°
2026-04-29 10:47 27.18423 79.63932 36631 ft 441 kts 111°
2026-04-29 10:47 27.16260 79.70410 36670 ft 446 kts 111°
2026-04-29 10:48 27.14067 79.76969 36662 ft 450 kts 111°
2026-04-29 10:48 27.11869 79.83533 36664 ft 451 kts 111°
2026-04-29 10:49 27.09641 79.90174 36665 ft 458 kts 111°
2026-04-29 10:49 27.07373 79.96921 36660 ft 465 kts 111°
2026-04-29 10:50 27.05069 80.03761 36661 ft 472 kts 111°
2026-04-29 10:50 27.02728 80.10698 36656 ft 479 kts 111°
2026-04-29 10:51 27.00345 80.17746 36663 ft 486 kts 111°
2026-04-29 10:51 26.97932 80.24877 36661 ft 493 kts 111°
2026-04-29 10:52 26.95492 80.32069 36661 ft 500 kts 111°
2026-04-29 10:52 26.92991 80.39426 36658 ft 503 kts 111°
2026-04-29 10:53 26.90503 80.46730 36660 ft 502 kts 111°
2026-04-29 10:53 26.88009 80.54041 36653 ft 502 kts 111°
2026-04-29 10:54 26.85775 80.60573 36639 ft 502 kts 111°
2026-04-29 10:54 26.83279 80.67867 36628 ft 502 kts 111°
2026-04-29 10:55 26.80779 80.75156 36615 ft 502 kts 111°
2026-04-29 10:55 26.78272 80.82445 36607 ft 502 kts 111°
2026-04-29 10:56 26.75450 80.89563 36609 ft 500 kts 120°
2026-04-29 10:56 26.71591 80.96015 36608 ft 499 kts 128°
2026-04-29 10:57 26.67497 81.02282 36615 ft 499 kts 127°
2026-04-29 10:57 26.63411 81.08559 36622 ft 499 kts 127°
2026-04-29 10:58 26.59324 81.14823 36626 ft 499 kts 128°
2026-04-29 10:58 26.55230 81.21085 36625 ft 499 kts 128°
2026-04-29 10:59 26.51132 81.27345 36621 ft 499 kts 128°
2026-04-29 10:59 26.47071 81.33541 36614 ft 499 kts 128°
2026-04-29 11:00 26.42930 81.39849 36618 ft 499 kts 128°
2026-04-29 11:00 26.38832 81.46081 36614 ft 499 kts 128°
2026-04-29 11:01 26.34713 81.52332 36619 ft 499 kts 128°
2026-04-29 11:01 26.30603 81.58566 36617 ft 499 kts 128°
2026-04-29 11:02 26.26491 81.64796 36622 ft 499 kts 128°
2026-04-29 11:02 26.22382 81.71013 36624 ft 498 kts 128°
2026-04-29 11:03 26.18300 81.77182 36618 ft 498 kts 128°
2026-04-29 11:03 26.13489 81.82696 36621 ft 492 kts 148°
2026-04-29 11:04 26.07500 81.86205 36624 ft 489 kts 156°
2026-04-29 11:04 26.01396 81.89527 36621 ft 489 kts 156°
2026-04-29 11:05 25.95304 81.92862 36621 ft 489 kts 156°
2026-04-29 11:05 25.89211 81.96200 36621 ft 488 kts 156°
2026-04-29 11:06 25.83077 81.99555 36627 ft 489 kts 156°
2026-04-29 11:06 25.76983 82.02883 36622 ft 488 kts 156°
2026-04-29 11:07 25.70884 82.06210 36618 ft 488 kts 156°
2026-04-29 11:07 25.64806 82.09521 36624 ft 488 kts 156°
2026-04-29 11:08 25.58759 82.12812 36621 ft 487 kts 156°
2026-04-29 11:08 25.52630 82.16144 36626 ft 487 kts 156°
2026-04-29 11:09 25.46576 82.19431 36623 ft 487 kts 156°
2026-04-29 11:09 25.40489 82.22732 36625 ft 487 kts 156°
2026-04-29 11:10 25.34407 82.26027 36625 ft 487 kts 156°
2026-04-29 11:10 25.28316 82.29323 36624 ft 487 kts 156°
2026-04-29 11:11 25.22228 82.32613 36624 ft 487 kts 156°
2026-04-29 11:11 25.16137 82.35902 36623 ft 488 kts 156°
2026-04-29 11:12 25.10043 82.39188 36628 ft 487 kts 156°
2026-04-29 11:12 25.03923 82.42477 36608 ft 493 kts 155°
2026-04-29 11:13 24.97710 82.45818 36603 ft 499 kts 154°
2026-04-29 11:13 24.91466 82.49176 36606 ft 500 kts 154°
2026-04-29 11:14 24.85215 82.52532 36610 ft 500 kts 154°
2026-04-29 11:14 24.78990 82.55871 36612 ft 500 kts 154°
2026-04-29 11:15 24.72696 82.59242 36612 ft 501 kts 154°
2026-04-29 11:15 24.66432 82.62594 36613 ft 502 kts 154°
2026-04-29 11:16 24.60140 82.65957 36607 ft 503 kts 154°
2026-04-29 11:16 24.53846 82.69318 36606 ft 503 kts 154°
2026-04-29 11:17 24.47541 82.72680 36600 ft 504 kts 154°
2026-04-29 11:17 24.42305 82.75469 36598 ft 503 kts 154°
2026-04-29 11:18 24.34961 82.79378 36593 ft 502 kts 154°
2026-04-29 11:18 24.29724 82.82161 36591 ft 503 kts 154°
2026-04-29 11:19 24.23425 82.85507 36585 ft 503 kts 154°
2026-04-29 11:19 24.17131 82.88847 36583 ft 504 kts 154°
2026-04-29 11:20 24.10815 82.92194 36583 ft 504 kts 153°
2026-04-29 11:20 24.04503 82.95536 36583 ft 504 kts 153°
2026-04-29 11:21 23.98187 82.98875 36587 ft 504 kts 153°
2026-04-29 11:21 23.91865 83.02214 36588 ft 505 kts 154°
2026-04-29 11:22 23.85557 83.05543 36591 ft 505 kts 154°
2026-04-29 11:22 23.79226 83.08880 36594 ft 505 kts 154°
2026-04-29 11:23 23.72894 83.12215 36598 ft 505 kts 154°
2026-04-29 11:23 23.66561 83.15545 36604 ft 505 kts 154°
2026-04-29 11:24 23.60242 83.18865 36606 ft 505 kts 154°
2026-04-29 11:24 23.53917 83.22183 36609 ft 504 kts 154°
2026-04-29 11:25 23.47589 83.25500 36625 ft 504 kts 154°
2026-04-29 11:25 23.41270 83.28808 36626 ft 503 kts 154°
2026-04-29 11:26 23.31855 83.33733 36638 ft 503 kts 154°
2026-04-29 11:26 23.25547 83.37027 36652 ft 503 kts 154°
2026-04-29 11:27 23.19244 83.40316 36667 ft 502 kts 154°
2026-04-29 11:27 23.12941 83.43601 36679 ft 502 kts 155°
2026-04-29 11:28 23.06644 83.46879 36687 ft 502 kts 155°
2026-04-29 11:28 23.00348 83.50153 36695 ft 502 kts 155°
2026-04-29 11:29 22.94038 83.53431 36701 ft 502 kts 155°
2026-04-29 11:29 22.87736 83.56701 36707 ft 502 kts 155°
2026-04-29 11:30 22.81428 83.59972 36710 ft 502 kts 155°
2026-04-29 11:30 22.75120 83.63238 36709 ft 503 kts 156°
2026-04-29 11:31 22.68813 83.66501 36708 ft 503 kts 156°
2026-04-29 11:31 22.62502 83.69762 36709 ft 502 kts 156°
2026-04-29 11:32 22.56195 83.73018 36701 ft 502 kts 156°
2026-04-29 11:32 22.49899 83.76264 36706 ft 501 kts 156°
2026-04-29 11:33 22.43601 83.79509 36688 ft 501 kts 156°
2026-04-29 11:33 22.37313 83.82746 36685 ft 501 kts 156°
2026-04-29 11:34 22.31026 83.85978 36679 ft 500 kts 156°
2026-04-29 11:34 22.24745 83.89203 36670 ft 500 kts 156°
2026-04-29 11:35 22.18471 83.92423 36653 ft 500 kts 156°
2026-04-29 11:35 22.12189 83.95644 36642 ft 499 kts 156°
2026-04-29 11:36 22.05917 83.98855 36620 ft 499 kts 156°
2026-04-29 11:36 21.99689 84.02043 36607 ft 498 kts 156°
2026-04-29 11:37 21.93463 84.05451 36607 ft 500 kts 150°
2026-04-29 11:37 21.87922 84.09990 36608 ft 503 kts 138°
2026-04-29 11:38 21.82949 84.15214 36617 ft 502 kts 137°
2026-04-29 11:38 21.77948 84.20440 36634 ft 501 kts 137°
2026-04-29 11:39 21.72933 84.25667 36660 ft 501 kts 137°
2026-04-29 11:39 21.67939 84.30870 36673 ft 501 kts 137°
2026-04-29 11:40 21.62929 84.36084 36686 ft 500 kts 137°
2026-04-29 11:40 21.57940 84.41271 36688 ft 500 kts 138°
2026-04-29 11:41 21.52931 84.46474 36699 ft 500 kts 138°
2026-04-29 11:41 21.47935 84.51658 36696 ft 500 kts 138°
2026-04-29 11:42 21.42935 84.56841 36697 ft 499 kts 138°
2026-04-29 11:42 21.37938 84.62016 36698 ft 499 kts 138°
2026-04-29 11:43 21.32934 84.67192 36700 ft 499 kts 138°
2026-04-29 11:43 21.27937 84.72357 36700 ft 499 kts 138°
2026-04-29 11:44 21.22933 84.77522 36693 ft 499 kts 138°
2026-04-29 11:44 21.17936 84.82677 36698 ft 499 kts 138°
2026-04-29 11:45 21.12927 84.87838 36698 ft 499 kts 139°
2026-04-29 11:45 21.07925 84.92987 36694 ft 499 kts 139°
2026-04-29 11:46 21.02979 84.98204 36687 ft 499 kts 137°
2026-04-29 11:46 20.98077 85.03460 36696 ft 499 kts 137°
2026-04-29 11:47 20.93163 85.08699 36689 ft 499 kts 137°
2026-04-29 11:47 20.88242 85.13928 36694 ft 499 kts 137°
2026-04-29 11:48 20.83318 85.19154 36695 ft 499 kts 137°
2026-04-29 11:48 20.78436 85.24332 36696 ft 499 kts 137°
2026-04-29 11:49 20.73491 85.29571 36687 ft 500 kts 137°
2026-04-29 11:49 20.68556 85.34794 36690 ft 500 kts 137°
2026-04-29 11:50 20.63575 85.40061 36691 ft 500 kts 137°
2026-04-29 11:50 20.58656 85.45258 36688 ft 501 kts 137°
2026-04-29 11:51 20.53704 85.50484 36704 ft 501 kts 137°
2026-04-29 11:51 20.48738 85.55722 36694 ft 502 kts 137°
2026-04-29 11:52 20.43773 85.60952 36682 ft 502 kts 137°
2026-04-29 11:52 20.38793 85.66195 36680 ft 503 kts 137°
2026-04-29 11:53 20.33814 85.71429 36673 ft 503 kts 137°
2026-04-29 11:53 20.28826 85.76670 36667 ft 504 kts 137°
2026-04-29 11:54 20.23824 85.81919 36667 ft 504 kts 137°
2026-04-29 11:54 20.18790 85.87100 36662 ft 504 kts 138°
2026-04-29 11:55 20.13733 85.92264 36679 ft 504 kts 138°
2026-04-29 11:55 20.08690 85.97423 36696 ft 504 kts 137°
2026-04-29 11:56 20.03624 86.02608 36706 ft 504 kts 137°
2026-04-29 11:56 19.98575 86.07770 36721 ft 504 kts 137°
2026-04-29 11:57 19.93522 86.12936 36724 ft 504 kts 138°
2026-04-29 11:57 19.88499 86.18100 36729 ft 505 kts 137°
2026-04-29 11:58 19.83553 86.23344 36731 ft 505 kts 136°
2026-04-29 11:58 19.78533 86.28659 36732 ft 505 kts 136°
2026-04-29 11:59 19.73554 86.33908 36738 ft 505 kts 137°
2026-04-29 11:59 19.68563 86.39160 36742 ft 506 kts 137°
2026-04-29 12:00 19.63559 86.44420 36749 ft 506 kts 137°
2026-04-29 12:00 19.58589 86.49619 36755 ft 506 kts 137°
2026-04-29 12:01 19.53541 86.54861 36756 ft 502 kts 137°
2026-04-29 12:01 19.48524 86.60073 36755 ft 507 kts 137°
2026-04-29 12:02 19.44343 86.64414 36757 ft 506 kts 137°
2026-04-29 12:02 19.39311 86.69635 36758 ft 507 kts 137°
2026-04-29 12:03 19.34278 86.74852 36761 ft 507 kts 137°
2026-04-29 12:03 19.29245 86.80065 36762 ft 507 kts 137°
2026-04-29 12:04 19.24185 86.85301 36762 ft 507 kts 137°
2026-04-29 12:04 19.19133 86.90524 36768 ft 508 kts 137°
2026-04-29 12:05 19.14049 86.95775 36765 ft 508 kts 137°
2026-04-29 12:05 19.09020 87.00965 36767 ft 508 kts 137°
2026-04-29 12:06 19.03957 87.06185 36767 ft 508 kts 137°
2026-04-29 12:06 18.98907 87.11387 36765 ft 508 kts 137°
2026-04-29 12:07 18.93844 87.16598 36769 ft 508 kts 137°
2026-04-29 12:07 18.88788 87.21798 36771 ft 508 kts 137°
2026-04-29 12:08 18.83727 87.26998 36771 ft 508 kts 138°
2026-04-29 12:08 18.78658 87.32201 36771 ft 508 kts 138°
2026-04-29 12:09 18.73596 87.37393 36771 ft 507 kts 138°
2026-04-29 12:09 18.68549 87.42565 36774 ft 507 kts 138°
2026-04-29 12:10 18.63472 87.47763 36773 ft 507 kts 138°
2026-04-29 12:10 18.58413 87.52938 36775 ft 507 kts 138°
2026-04-29 12:11 18.53362 87.58101 36771 ft 507 kts 139°
2026-04-29 12:11 18.48300 87.63269 36776 ft 506 kts 139°
2026-04-29 12:12 18.43241 87.68431 36774 ft 506 kts 139°
2026-04-29 12:12 18.38174 87.73595 36779 ft 506 kts 139°
2026-04-29 12:13 18.33117 87.78745 36780 ft 506 kts 139°
2026-04-29 12:13 18.28057 87.83896 36778 ft 506 kts 139°
2026-04-29 12:14 18.23037 87.89087 36781 ft 506 kts 138°
2026-04-29 12:14 18.18029 87.94299 36782 ft 506 kts 139°
2026-04-29 12:15 18.13023 87.99491 36785 ft 505 kts 139°
2026-04-29 12:15 18.08014 88.04676 36784 ft 505 kts 139°
2026-04-29 12:16 18.03003 88.09857 36786 ft 505 kts 139°
2026-04-29 12:16 17.97996 88.15032 36786 ft 505 kts 139°
2026-04-29 12:17 17.92986 88.20204 36788 ft 505 kts 139°
2026-04-29 12:17 17.87981 88.25367 36787 ft 504 kts 139°
2026-04-29 12:18 17.82976 88.30525 36788 ft 504 kts 139°
2026-04-29 12:18 17.77972 88.35678 36789 ft 504 kts 139°
2026-04-29 12:19 17.72972 88.40823 36792 ft 504 kts 139°
2026-04-29 12:19 17.67970 88.45966 36794 ft 503 kts 139°
2026-04-29 12:20 17.63009 88.51063 36794 ft 503 kts 139°
2026-04-29 12:20 17.58003 88.56201 36795 ft 503 kts 139°
2026-04-29 12:21 17.52971 88.61362 36800 ft 503 kts 139°
2026-04-29 12:21 17.47970 88.66487 36797 ft 503 kts 139°
2026-04-29 12:22 17.43012 88.71563 36798 ft 502 kts 139°
2026-04-29 12:22 17.37970 88.76721 36800 ft 503 kts 139°
2026-04-29 12:23 17.32970 88.81833 36805 ft 502 kts 139°
2026-04-29 12:23 17.27972 88.86937 36803 ft 502 kts 139°
2026-04-29 12:24 17.23007 88.92005 36807 ft 502 kts 139°
2026-04-29 12:24 17.17978 88.97141 36809 ft 502 kts 139°
2026-04-29 12:25 17.13020 89.02290 36808 ft 502 kts 139°
2026-04-29 12:25 17.09882 89.05556 36809 ft 0 kts 93°
2026-04-29 12:26 17.09884 89.05551 36792 ft 0 kts 316°
2026-04-29 12:26 17.46770 89.24834 38805 ft 32000 kts 67°
2026-04-29 12:26 17.47093 89.24690 38808 ft 0 kts 67°
2026-04-29 12:27 17.48214 89.27466 39396 ft 485 kts 65°
2026-04-29 12:27 17.49498 89.30662 40053 ft 470 kts 65°
2026-04-29 12:27 17.50727 89.33733 40660 ft 455 kts 65°
2026-04-29 12:28 17.51925 89.36746 41038 ft 447 kts 66°
2026-04-29 12:28 17.53082 89.39830 40489 ft 462 kts 68°
2026-04-29 12:28 17.53838 89.43131 39793 ft 479 kts 93°
2026-04-29 12:28 17.53489 89.46660 39302 ft 489 kts 99°
2026-04-29 12:29 17.52924 89.50173 39771 ft 477 kts 102°
2026-04-29 12:29 17.52291 89.53441 40337 ft 465 kts 104°
2026-04-29 12:29 17.51571 89.56786 39932 ft 477 kts 101°
2026-04-29 12:29 17.51241 89.60103 39597 ft 488 kts 90°